JAL8118 RJBB-RJFF

Flight info

Callsign JAL8118
Flight time 1h 22m
Altitude 38000
Route MAIKO OSRIX GUMID SOUJA Y281 STOUT Y20 KIRIN
Aircraft A359/H-SDE2E3GHIJ3J4J5LM1ORWXY/LB1D1

Departure

Time 2026-05-07 12:29
Airport Kansai International Airport (RJBB)

Arrival

Time 2026-05-07 13:51
Airport Fukuoka Airport (RJFF)
Time Latitude Longitude Altitude Speed Heading
2026-05-07 11:58 34.42996 135.23986 25 ft 0 kts 321°
2026-05-07 12:10 34.42981 135.24000 31 ft 3 kts 321°
2026-05-07 12:10 34.42965 135.24016 31 ft 3 kts 316°
2026-05-07 12:10 34.42956 135.24036 31 ft 3 kts 265°
2026-05-07 12:11 34.42962 135.24059 28 ft 3 kts 245°
2026-05-07 12:11 34.42970 135.24075 31 ft 0 kts 233°
2026-05-07 12:12 34.42969 135.24075 31 ft 0 kts 233°
2026-05-07 12:16 34.42958 135.24058 29 ft 8 kts 229°
2026-05-07 12:16 34.42916 135.24001 31 ft 0 kts 228°
2026-05-07 12:17 34.42899 135.23978 31 ft 8 kts 228°
2026-05-07 12:17 34.42853 135.23916 29 ft 11 kts 228°
2026-05-07 12:18 34.42798 135.23835 28 ft 14 kts 240°
2026-05-07 12:18 34.42816 135.23726 27 ft 15 kts 310°
2026-05-07 12:18 34.42902 135.23641 31 ft 17 kts 322°
2026-05-07 12:18 34.42998 135.23545 28 ft 18 kts 308°
2026-05-07 12:19 34.42983 135.23410 26 ft 18 kts 232°
2026-05-07 12:19 34.42932 135.23276 28 ft 17 kts 284°
2026-05-07 12:19 34.43005 135.23175 29 ft 16 kts 319°
2026-05-07 12:19 34.43098 135.23084 30 ft 18 kts 322°
2026-05-07 12:20 34.43189 135.22993 35 ft 17 kts 320°
2026-05-07 12:20 34.43286 135.22900 35 ft 19 kts 322°
2026-05-07 12:20 34.43398 135.22794 35 ft 22 kts 321°
2026-05-07 12:20 34.43515 135.22679 35 ft 24 kts 321°
2026-05-07 12:21 34.43645 135.22548 35 ft 25 kts 320°
2026-05-07 12:21 34.43773 135.22423 35 ft 21 kts 328°
2026-05-07 12:21 34.43846 135.22431 35 ft 6 kts 53°
2026-05-07 12:21 34.43876 135.22481 35 ft 9 kts 53°
2026-05-07 12:22 34.43923 135.22555 35 ft 13 kts 52°
2026-05-07 12:22 34.43984 135.22644 35 ft 16 kts 50°
2026-05-07 12:22 34.44055 135.22748 35 ft 18 kts 52°
2026-05-07 12:22 34.44138 135.22875 34 ft 21 kts 51°
2026-05-07 12:23 34.44233 135.23015 35 ft 23 kts 51°
2026-05-07 12:23 34.44336 135.23169 35 ft 26 kts 51°
2026-05-07 12:23 34.44450 135.23340 35 ft 28 kts 50°
2026-05-07 12:23 34.44575 135.23523 36 ft 30 kts 50°
2026-05-07 12:24 34.44709 135.23721 37 ft 31 kts 51°
2026-05-07 12:24 34.44846 135.23928 38 ft 32 kts 51°
2026-05-07 12:24 34.44940 135.24068 38 ft 10 kts 42°
2026-05-07 12:24 34.45007 135.24083 38 ft 11 kts 335°
2026-05-07 12:25 34.45014 135.24078 38 ft 0 kts 327°
2026-05-07 12:26 34.45020 135.24074 38 ft 5 kts 327°
2026-05-07 12:26 34.45059 135.24043 38 ft 8 kts 326°
2026-05-07 12:27 34.45086 135.23976 38 ft 10 kts 271°
2026-05-07 12:27 34.45055 135.23896 38 ft 4 kts 233°
2026-05-07 12:28 34.45049 135.23887 38 ft 12 kts 233°
2026-05-07 12:28 34.44831 135.23552 37 ft 90 kts 231°
2026-05-07 12:28 34.44288 135.22733 35 ft 157 kts 231°
2026-05-07 12:28 34.43794 135.21995 240 ft 178 kts 232°
2026-05-07 12:29 34.42928 135.20948 1152 ft 174 kts 219°
2026-05-07 12:29 34.42283 135.19653 1756 ft 195 kts 261°
2026-05-07 12:29 34.42285 135.17945 2387 ft 209 kts 272°
2026-05-07 12:29 34.42283 135.15587 3525 ft 213 kts 265°
2026-05-07 12:30 34.42156 135.13818 4418 ft 212 kts 262°
2026-05-07 12:30 34.42032 135.12622 5047 ft 211 kts 260°
2026-05-07 12:30 34.41817 135.10869 5950 ft 211 kts 258°
2026-05-07 12:30 34.41655 135.08529 7075 ft 217 kts 271°
2026-05-07 12:31 34.41906 135.07317 7634 ft 225 kts 289°
2026-05-07 12:31 34.42887 135.05772 8347 ft 247 kts 317°
2026-05-07 12:31 34.44569 135.04949 8729 ft 283 kts 352°
2026-05-07 12:31 34.46554 135.05417 9444 ft 302 kts 26°
2026-05-07 12:32 34.48209 135.06958 10285 ft 310 kts 43°
2026-05-07 12:32 34.50059 135.08417 10674 ft 329 kts 18°
2026-05-07 12:32 34.52373 135.08766 11012 ft 346 kts 354°
2026-05-07 12:32 34.54755 135.08080 11407 ft 359 kts 338°
2026-05-07 12:33 34.59008 135.04895 12839 ft 363 kts 310°
2026-05-07 12:33 34.60421 135.02371 13604 ft 363 kts 293°
2026-05-07 12:33 34.61179 134.99456 14276 ft 365 kts 279°
2026-05-07 12:34 34.61550 134.96388 14859 ft 369 kts 275°
2026-05-07 12:34 34.61758 134.93315 15497 ft 372 kts 272°
2026-05-07 12:34 34.61902 134.90220 16137 ft 374 kts 271°
2026-05-07 12:34 34.62039 134.87052 16796 ft 377 kts 272°
2026-05-07 12:35 34.62192 134.83856 17438 ft 381 kts 272°
2026-05-07 12:35 34.62367 134.80641 18069 ft 384 kts 273°
2026-05-07 12:35 34.62407 134.77379 18596 ft 389 kts 267°
2026-05-07 12:35 34.62284 134.74087 19164 ft 391 kts 266°
2026-05-07 12:36 34.62103 134.70781 19717 ft 393 kts 265°
2026-05-07 12:36 34.61889 134.67505 20239 ft 396 kts 264°
2026-05-07 12:36 34.61657 134.64203 20835 ft 399 kts 264°
2026-05-07 12:36 34.61417 134.60862 21445 ft 401 kts 264°
2026-05-07 12:37 34.61174 134.57477 22075 ft 404 kts 264°
2026-05-07 12:37 34.60932 134.54070 22669 ft 407 kts 264°
2026-05-07 12:37 34.60690 134.50634 23270 ft 411 kts 264°
2026-05-07 12:37 34.60448 134.47166 23816 ft 414 kts 264°
2026-05-07 12:38 34.60203 134.43662 24286 ft 419 kts 264°
2026-05-07 12:38 34.59955 134.40126 24775 ft 423 kts 264°
2026-05-07 12:38 34.59707 134.36591 25307 ft 426 kts 264°
2026-05-07 12:38 34.59453 134.32996 25837 ft 429 kts 264°
2026-05-07 12:39 34.59196 134.29373 26359 ft 433 kts 264°
2026-05-07 12:39 34.58939 134.25771 26876 ft 437 kts 264°
2026-05-07 12:39 34.58671 134.22029 27396 ft 440 kts 263°
2026-05-07 12:39 34.58404 134.18323 27992 ft 442 kts 263°
2026-05-07 12:40 34.58136 134.14611 28505 ft 445 kts 263°
2026-05-07 12:40 34.57862 134.10836 28991 ft 449 kts 263°
2026-05-07 12:40 34.57630 134.07085 29354 ft 456 kts 266°
2026-05-07 12:40 34.57752 134.03249 29791 ft 462 kts 274°
2026-05-07 12:41 34.58263 133.99390 30323 ft 464 kts 277°
2026-05-07 12:41 34.58883 133.95538 30822 ft 465 kts 279°
2026-05-07 12:41 34.59555 133.91695 31297 ft 466 kts 279°
2026-05-07 12:41 34.60249 133.87850 31755 ft 467 kts 280°
2026-05-07 12:42 34.60950 133.83994 32187 ft 468 kts 280°
2026-05-07 12:42 34.61646 133.80132 32670 ft 467 kts 279°
2026-05-07 12:42 34.62156 133.76280 33114 ft 465 kts 273°
2026-05-07 12:42 34.62239 133.72419 33590 ft 461 kts 265°
2026-05-07 12:43 34.61889 133.68575 34171 ft 456 kts 261°
2026-05-07 12:43 34.61383 133.64780 34607 ft 455 kts 259°
2026-05-07 12:43 34.60816 133.61007 34994 ft 454 kts 258°
2026-05-07 12:43 34.60220 133.57250 35351 ft 453 kts 258°
2026-05-07 12:44 34.59803 133.54666 35609 ft 453 kts 258°
2026-05-07 12:44 34.59199 133.50918 35998 ft 452 kts 258°
2026-05-07 12:44 34.58602 133.47179 36362 ft 451 kts 258°
2026-05-07 12:44 34.58010 133.43444 36706 ft 450 kts 258°
2026-05-07 12:45 34.57432 133.39773 37143 ft 447 kts 258°
2026-05-07 12:45 34.56852 133.36079 37591 ft 445 kts 258°
2026-05-07 12:45 34.56275 133.32404 37921 ft 444 kts 258°
2026-05-07 12:45 34.55694 133.28717 38025 ft 445 kts 259°
2026-05-07 12:46 34.54530 133.21343 38041 ft 446 kts 258°
2026-05-07 12:46 34.53365 133.13995 38028 ft 444 kts 258°
2026-05-07 12:47 34.52194 133.06642 38027 ft 443 kts 258°
2026-05-07 12:47 34.51034 132.99394 38028 ft 442 kts 258°
2026-05-07 12:48 34.49861 132.92099 38030 ft 440 kts 258°
2026-05-07 12:48 34.48686 132.84815 38029 ft 440 kts 258°
2026-05-07 12:49 34.47508 132.77536 38025 ft 440 kts 258°
2026-05-07 12:49 34.46327 132.70252 38025 ft 440 kts 258°
2026-05-07 12:50 34.45135 132.62945 38023 ft 442 kts 258°
2026-05-07 12:50 34.43946 132.55688 38023 ft 442 kts 258°
2026-05-07 12:51 34.42748 132.48405 38027 ft 440 kts 258°
2026-05-07 12:51 34.41556 132.41187 38033 ft 440 kts 258°
2026-05-07 12:52 34.40357 132.33926 38021 ft 439 kts 258°
2026-05-07 12:52 34.39220 132.26657 38034 ft 440 kts 258°
2026-05-07 12:53 34.38103 132.19383 38039 ft 440 kts 258°
2026-05-07 12:53 34.36988 132.12184 38013 ft 439 kts 258°
2026-05-07 12:54 34.35842 132.04922 38020 ft 439 kts 258°
2026-05-07 12:54 34.34692 131.97665 38015 ft 439 kts 258°
2026-05-07 12:55 34.33544 131.90448 38017 ft 440 kts 258°
2026-05-07 12:55 34.32389 131.83176 38020 ft 440 kts 258°
2026-05-07 12:56 34.30560 131.76168 38023 ft 440 kts 238°
2026-05-07 12:56 34.28587 131.73348 38022 ft 443 kts 223°
2026-05-07 12:56 34.25987 131.71309 38013 ft 451 kts 208°
2026-05-07 12:57 34.22951 131.70233 38021 ft 462 kts 192°
2026-05-07 12:57 34.19710 131.70223 38019 ft 473 kts 177°
2026-05-07 12:57 34.16521 131.71303 38021 ft 486 kts 161°
2026-05-07 12:57 34.13579 131.73437 37973 ft 496 kts 146°
2026-05-07 12:58 34.11147 131.76312 37405 ft 500 kts 135°
2026-05-07 12:58 34.08925 131.79645 36547 ft 505 kts 132°
2026-05-07 12:58 34.06816 131.82970 35798 ft 506 kts 132°
2026-05-07 12:58 34.04866 131.86530 35041 ft 514 kts 121°
2026-05-07 12:59 34.03644 131.90616 34309 ft 523 kts 105°
2026-05-07 12:59 34.03292 131.94995 33485 ft 530 kts 90°
2026-05-07 12:59 34.03837 131.99380 32593 ft 535 kts 75°
2026-05-07 12:59 34.05257 132.03526 31721 ft 537 kts 60°
2026-05-07 13:00 34.07322 132.07276 30869 ft 538 kts 53°
2026-05-07 13:00 34.09575 132.10885 29994 ft 539 kts 52°
2026-05-07 13:00 34.11822 132.14409 29180 ft 535 kts 52°
2026-05-07 13:00 34.14089 132.17979 28454 ft 537 kts 52°
2026-05-07 13:01 34.16354 132.21559 27848 ft 535 kts 52°
2026-05-07 13:01 34.18614 132.25106 27242 ft 530 kts 51°
2026-05-07 13:01 34.21116 132.28307 26649 ft 521 kts 38°
2026-05-07 13:01 34.24137 132.30624 26228 ft 510 kts 21°
2026-05-07 13:02 34.27506 132.31881 26063 ft 504 kts
2026-05-07 13:02 34.30958 132.32027 26039 ft 492 kts 350°
2026-05-07 13:02 34.34247 132.31091 26034 ft 482 kts 335°
2026-05-07 13:02 34.37195 132.29242 26036 ft 475 kts 324°
2026-05-07 13:03 34.39956 132.27056 26030 ft 474 kts 322°
2026-05-07 13:03 34.42687 132.24819 26024 ft 474 kts 322°
2026-05-07 13:03 34.45414 132.22579 26011 ft 474 kts 322°
2026-05-07 13:03 34.48147 132.20335 26019 ft 474 kts 322°
2026-05-07 13:04 34.50851 132.18065 26008 ft 470 kts 318°
2026-05-07 13:04 34.53079 132.15309 26011 ft 460 kts 302°
2026-05-07 13:04 34.54577 132.11932 26003 ft 452 kts 287°
2026-05-07 13:04 34.55207 132.08242 26004 ft 446 kts 271°
2026-05-07 13:05 34.54945 132.04520 26006 ft 444 kts 257°
2026-05-07 13:05 34.54119 132.00918 25998 ft 444 kts 252°
2026-05-07 13:05 34.53175 131.97347 25996 ft 444 kts 252°
2026-05-07 13:05 34.52211 131.93790 26001 ft 444 kts 252°
2026-05-07 13:06 34.51246 131.90240 25866 ft 439 kts 252°
2026-05-07 13:06 34.50252 131.86765 25185 ft 435 kts 249°
2026-05-07 13:06 34.49121 131.83365 24417 ft 434 kts 248°
2026-05-07 13:06 34.47946 131.80004 23777 ft 431 kts 247°
2026-05-07 13:07 34.46752 131.76697 23091 ft 427 kts 246°
2026-05-07 13:07 34.45558 131.73440 22367 ft 421 kts 246°
2026-05-07 13:07 34.44367 131.70206 21596 ft 418 kts 246°
2026-05-07 13:07 34.43196 131.67021 21093 ft 414 kts 246°
2026-05-07 13:08 34.42045 131.63886 20831 ft 413 kts 246°
2026-05-07 13:08 34.40880 131.60716 20584 ft 411 kts 246°
2026-05-07 13:08 34.39717 131.57557 20345 ft 410 kts 246°
2026-05-07 13:08 34.38558 131.54406 20138 ft 409 kts 246°
2026-05-07 13:09 34.37410 131.51273 19883 ft 406 kts 246°
2026-05-07 13:09 34.36269 131.48150 19637 ft 405 kts 246°
2026-05-07 13:09 34.35131 131.45038 19417 ft 404 kts 246°
2026-05-07 13:09 34.33992 131.41936 19178 ft 403 kts 246°
2026-05-07 13:10 34.32861 131.38859 18946 ft 402 kts 246°
2026-05-07 13:10 34.31719 131.35753 18711 ft 401 kts 246°
2026-05-07 13:10 34.30604 131.32726 18517 ft 399 kts 246°
2026-05-07 13:10 34.29477 131.29673 18283 ft 396 kts 246°
2026-05-07 13:11 34.28348 131.26638 18051 ft 395 kts 245°
2026-05-07 13:11 34.27222 131.23609 17999 ft 395 kts 246°
2026-05-07 13:11 34.26101 131.20581 18003 ft 395 kts 246°
2026-05-07 13:11 34.24981 131.17552 18005 ft 395 kts 246°
2026-05-07 13:12 34.23861 131.14519 18008 ft 395 kts 246°
2026-05-07 13:12 34.22739 131.11487 18010 ft 395 kts 246°
2026-05-07 13:12 34.21617 131.08463 18002 ft 394 kts 246°
2026-05-07 13:12 34.20497 131.05448 18000 ft 394 kts 245°
2026-05-07 13:13 34.19376 131.02432 17998 ft 393 kts 246°
2026-05-07 13:13 34.18266 130.99407 17990 ft 394 kts 246°
2026-05-07 13:13 34.17188 130.96366 18001 ft 395 kts 247°
2026-05-07 13:13 34.16110 130.93315 18002 ft 395 kts 247°
2026-05-07 13:14 34.15048 130.90325 17791 ft 388 kts 246°
2026-05-07 13:14 34.13828 130.87448 17014 ft 386 kts 238°
2026-05-07 13:14 34.12174 130.84901 16172 ft 387 kts 227°
2026-05-07 13:14 34.10099 130.82839 15420 ft 387 kts 215°
2026-05-07 13:15 34.07706 130.81361 14704 ft 388 kts 204°
2026-05-07 13:15 34.05125 130.80487 13990 ft 388 kts 195°
2026-05-07 13:15 34.02480 130.79860 13214 ft 386 kts 193°
2026-05-07 13:15 33.99933 130.79046 12765 ft 371 kts 205°
2026-05-07 13:16 33.97844 130.77409 12464 ft 353 kts 225°
2026-05-07 13:16 33.96442 130.75086 12188 ft 338 kts 244°
2026-05-07 13:16 33.95634 130.72491 11969 ft 324 kts 251°
2026-05-07 13:16 33.94971 130.69953 11754 ft 312 kts 252°
2026-05-07 13:17 33.94346 130.67507 11555 ft 299 kts 252°
2026-05-07 13:17 33.93752 130.65165 11369 ft 287 kts 252°
2026-05-07 13:17 33.93178 130.62892 11027 ft 282 kts 252°
2026-05-07 13:17 33.92612 130.60644 10623 ft 280 kts 252°
2026-05-07 13:18 33.92050 130.58403 10192 ft 279 kts 252°
2026-05-07 13:18 33.91501 130.56199 9776 ft 278 kts 252°
2026-05-07 13:18 33.90942 130.53947 9319 ft 276 kts 252°
2026-05-07 13:18 33.90401 130.51768 8885 ft 275 kts 252°
2026-05-07 13:19 33.89858 130.49569 8423 ft 273 kts 252°
2026-05-07 13:19 33.89320 130.47387 8114 ft 271 kts 252°
2026-05-07 13:19 33.88785 130.45219 8044 ft 270 kts 252°
2026-05-07 13:19 33.88249 130.43052 8039 ft 270 kts 252°
2026-05-07 13:20 33.87714 130.40888 8040 ft 270 kts 252°
2026-05-07 13:20 33.87180 130.38727 8041 ft 269 kts 252°
2026-05-07 13:20 33.86645 130.36565 8041 ft 269 kts 252°
2026-05-07 13:20 33.86123 130.34402 8039 ft 270 kts 254°
2026-05-07 13:21 33.85922 130.32155 8041 ft 272 kts 269°
2026-05-07 13:21 33.86011 130.29920 7763 ft 270 kts 271°
2026-05-07 13:21 33.86146 130.27655 7263 ft 273 kts 272°
2026-05-07 13:21 33.86286 130.25378 6832 ft 272 kts 272°
2026-05-07 13:22 33.86431 130.23128 6518 ft 267 kts 272°
2026-05-07 13:22 33.86579 130.20910 6119 ft 265 kts 272°
2026-05-07 13:22 33.86731 130.18705 5686 ft 264 kts 272°
2026-05-07 13:22 33.86889 130.16509 5269 ft 262 kts 272°
2026-05-07 13:23 33.87052 130.14334 4870 ft 260 kts 272°
2026-05-07 13:23 33.87209 130.12169 4436 ft 258 kts 270°
2026-05-07 13:23 33.86925 130.10078 3969 ft 253 kts 244°
2026-05-07 13:23 33.85868 130.08446 3527 ft 251 kts 217°
2026-05-07 13:24 33.84276 130.07654 3148 ft 251 kts 188°
2026-05-07 13:24 33.82543 130.07938 3049 ft 257 kts 161°
2026-05-07 13:24 33.80959 130.08891 3037 ft 259 kts 153°
2026-05-07 13:24 33.79400 130.09983 3038 ft 259 kts 152°
2026-05-07 13:25 33.77849 130.11086 3040 ft 259 kts 152°
2026-05-07 13:25 33.76296 130.12194 3039 ft 259 kts 152°
2026-05-07 13:25 33.74747 130.13301 3036 ft 259 kts 152°
2026-05-07 13:25 33.73196 130.14405 3036 ft 259 kts 152°
2026-05-07 13:26 33.71783 130.15761 2941 ft 264 kts 133°
2026-05-07 13:26 33.70727 130.17598 2492 ft 268 kts 123°
2026-05-07 13:26 33.69793 130.19515 2152 ft 263 kts 122°
2026-05-07 13:26 33.68880 130.21405 2047 ft 262 kts 122°
2026-05-07 13:27 33.67973 130.23275 2039 ft 263 kts 122°
2026-05-07 13:27 33.67049 130.25176 2039 ft 263 kts 122°
2026-05-07 13:27 33.66126 130.27069 2036 ft 263 kts 122°
2026-05-07 13:27 33.65204 130.28963 2035 ft 263 kts 122°
2026-05-07 13:28 33.64287 130.30858 2031 ft 263 kts 121°
2026-05-07 13:28 33.63367 130.32752 2004 ft 262 kts 121°
2026-05-07 13:28 33.62444 130.34633 2007 ft 262 kts 122°
2026-05-07 13:28 33.61494 130.36491 2007 ft 262 kts 126°
2026-05-07 13:29 33.60482 130.38316 2007 ft 263 kts 125°
2026-05-07 13:29 33.59411 130.40055 2008 ft 263 kts 130°
2026-05-07 13:29 33.58188 130.41677 2011 ft 262 kts 137°
2026-05-07 13:29 33.56855 130.43163 2007 ft 261 kts 140°
2026-05-07 13:30 33.55452 130.44503 2005 ft 260 kts 147°
2026-05-07 13:30 33.53933 130.45685 2004 ft 259 kts 149°
2026-05-07 13:30 33.52393 130.46821 2002 ft 260 kts 151°
2026-05-07 13:30 33.50967 130.47818 2006 ft 259 kts 154°
2026-05-07 13:31 33.49430 130.48914 2008 ft 255 kts 152°
2026-05-07 13:31 33.47912 130.49987 2001 ft 256 kts 153°
2026-05-07 13:31 33.46380 130.51086 2004 ft 256 kts 149°
2026-05-07 13:31 33.44885 130.52221 2016 ft 259 kts 149°
2026-05-07 13:32 33.43363 130.53396 2406 ft 262 kts 150°
2026-05-07 13:32 33.41879 130.54612 3146 ft 250 kts 147°
2026-05-07 13:32 33.40496 130.55775 3653 ft 237 kts 148°
2026-05-07 13:32 33.39158 130.56880 3827 ft 226 kts 149°
2026-05-07 13:33 33.37912 130.57902 3844 ft 209 kts 149°
2026-05-07 13:33 33.36788 130.58849 3986 ft 187 kts 149°
2026-05-07 13:33 33.35741 130.59743 4296 ft 189 kts 148°
2026-05-07 13:33 33.34631 130.60655 4747 ft 197 kts 149°
2026-05-07 13:34 33.33510 130.61584 4983 ft 197 kts 149°
2026-05-07 13:34 33.31257 130.63452 5028 ft 198 kts 149°
2026-05-07 13:34 33.30123 130.64391 5028 ft 199 kts 149°
2026-05-07 13:35 33.29001 130.65318 5018 ft 197 kts 150°
2026-05-07 13:35 33.27842 130.66199 5025 ft 196 kts 152°
2026-05-07 13:35 33.26674 130.67038 5044 ft 196 kts 152°
2026-05-07 13:35 33.25521 130.67883 5032 ft 193 kts 152°
2026-05-07 13:36 33.24392 130.68722 5026 ft 189 kts 152°
2026-05-07 13:36 33.23270 130.69539 5035 ft 188 kts 153°
2026-05-07 13:36 33.22038 130.69957 5030 ft 184 kts 182°
2026-05-07 13:37 33.19672 130.69574 5027 ft 184 kts 192°
2026-05-07 13:37 33.18416 130.69296 5029 ft 183 kts 192°
2026-05-07 13:37 33.17161 130.69035 5030 ft 182 kts 192°
2026-05-07 13:37 33.15912 130.68781 5033 ft 182 kts 192°
2026-05-07 13:38 33.14670 130.68524 5029 ft 181 kts 192°
2026-05-07 13:38 33.13424 130.68264 5030 ft 181 kts 192°
2026-05-07 13:38 33.12299 130.67662 5044 ft 179 kts 223°
2026-05-07 13:38 33.11751 130.66361 5040 ft 180 kts 261°
2026-05-07 13:39 33.11967 130.64891 5003 ft 183 kts 287°
2026-05-07 13:39 33.12456 130.63551 4882 ft 172 kts 291°
2026-05-07 13:39 33.12965 130.62316 4771 ft 160 kts 293°
2026-05-07 13:39 33.13456 130.61120 4402 ft 165 kts 292°
2026-05-07 13:40 33.13964 130.59884 4099 ft 164 kts 292°
2026-05-07 13:40 33.14475 130.58665 4033 ft 167 kts 293°
2026-05-07 13:40 33.15290 130.57659 4032 ft 176 kts 329°
2026-05-07 13:40 33.16508 130.57433 4039 ft 181 kts
2026-05-07 13:41 33.17748 130.57702 4030 ft 182 kts 11°
2026-05-07 13:41 33.18978 130.58074 4028 ft 182 kts 12°
2026-05-07 13:41 33.20201 130.58459 4030 ft 182 kts 12°
2026-05-07 13:41 33.21429 130.58844 4030 ft 182 kts 12°
2026-05-07 13:42 33.22652 130.59227 4033 ft 182 kts 12°
2026-05-07 13:42 33.23878 130.59610 4030 ft 182 kts 12°
2026-05-07 13:42 33.25100 130.59988 4031 ft 181 kts 12°
2026-05-07 13:42 33.26320 130.60365 4035 ft 182 kts 12°
2026-05-07 13:43 33.27534 130.60743 4024 ft 181 kts 12°
2026-05-07 13:43 33.28754 130.61124 4032 ft 181 kts 12°
2026-05-07 13:43 33.29972 130.61504 4019 ft 181 kts 12°
2026-05-07 13:43 33.31187 130.61886 4034 ft 181 kts 12°
2026-05-07 13:44 33.32396 130.62229 4011 ft 181 kts
2026-05-07 13:44 33.33608 130.61969 4033 ft 175 kts 335°
2026-05-07 13:44 33.34700 130.61351 4035 ft 173 kts 327°
2026-05-07 13:44 33.35755 130.60651 4029 ft 173 kts 325°
2026-05-07 13:45 33.36802 130.59937 4021 ft 174 kts 326°
2026-05-07 13:45 33.37865 130.59225 4021 ft 175 kts 326°
2026-05-07 13:45 33.38922 130.58513 4020 ft 174 kts 325°
2026-05-07 13:45 33.39972 130.57794 3955 ft 174 kts 325°
2026-05-07 13:46 33.41019 130.57079 3767 ft 173 kts 325°
2026-05-07 13:46 33.42063 130.56368 3511 ft 172 kts 326°
2026-05-07 13:46 33.43101 130.55660 3242 ft 171 kts 326°
2026-05-07 13:46 33.44092 130.54986 3013 ft 161 kts 325°
2026-05-07 13:47 33.45034 130.54341 2786 ft 152 kts 325°
2026-05-07 13:47 33.45933 130.53727 2592 ft 148 kts 325°
2026-05-07 13:47 33.46828 130.53115 2389 ft 148 kts 324°
2026-05-07 13:47 33.47723 130.52503 2205 ft 149 kts 324°
2026-05-07 13:48 33.48617 130.51890 2011 ft 147 kts 326°
2026-05-07 13:48 33.49492 130.51294 1819 ft 147 kts 324°
2026-05-07 13:48 33.50385 130.50683 1642 ft 148 kts 324°
2026-05-07 13:48 33.51275 130.50073 1423 ft 147 kts 324°
2026-05-07 13:49 33.52169 130.49462 1246 ft 149 kts 325°
2026-05-07 13:49 33.53055 130.48852 1031 ft 144 kts 326°
2026-05-07 13:49 33.53909 130.48271 864 ft 145 kts 327°
2026-05-07 13:49 33.54765 130.47685 671 ft 141 kts 328°
2026-05-07 13:50 33.55610 130.47107 494 ft 137 kts 330°
2026-05-07 13:50 33.56419 130.46555 357 ft 132 kts 328°
2026-05-07 13:50 33.57202 130.46005 178 ft 131 kts 329°
2026-05-07 13:50 33.58004 130.45469 42 ft 132 kts 329°
2026-05-07 13:51 33.58646 130.45035 36 ft 70 kts 330°
2026-05-07 13:51 33.58867 130.44882 35 ft 25 kts 332°
2026-05-07 13:51 33.59059 130.44794 31 ft 35 kts 345°
2026-05-07 13:51 33.59228 130.44769 30 ft 0 kts 360°
2026-05-07 13:52 33.59230 130.44769 30 ft 4 kts 359°
2026-05-07 13:52 33.59315 130.44767 30 ft 12 kts 359°
2026-05-07 13:52 33.59410 130.44740 30 ft 18 kts 326°
2026-05-07 13:52 33.59520 130.44722 30 ft 10 kts 40°
2026-05-07 13:53 33.59522 130.44755 30 ft 4 kts 112°
2026-05-07 13:53 33.59510 130.44797 30 ft 7 kts 104°
2026-05-07 13:53 33.59523 130.44858 30 ft 9 kts 66°
2026-05-07 13:53 33.59526 130.44869 30 ft 0 kts 65°